FENGYUN 1C DEB, 31536

Orbit data source: Space-Track

FENGYUN 1C DEB, 31536 is space debris in SSO originally from a launch on Mon, 10 May 1999 UTC launched from the Taiyaun Space Center, China (TSC). Fengyun 1C debris stems from the Chinese weather satellite Fengyun-1C, which was intentionally destroyed by a Chinese anti-satellite missile in 2007. This event dramatically increased the amount of space debris, with thousands of trackable fragments posing hazards to satellites and human spaceflight. The Fengyun 1C debris cloud has become a focal point in discussions about space sustainability and the need for international regulations to prevent the creation of new debris.

Loading next visibility...
Identifier
31536, 1999-025BYB
Orbit
SSO
Country
Flag of CNCN / PRC
Related business
Manufacturer
Unknown
Mission
Spacecraft
Bus & Motor
Unknown
Mass
Unknown
Launch date (UTC)
1999-05-10 (27 years ago)
Launch vehicle
Unknown
Launch site
Taiyaun Space Center, China (TSC)
Object type
Payload
Rocket body
Debris
Shape & HBR
Unknown shape, 0.1 m
Radar Cross Section
Small (<0.1 m²)

Expand to show TLE details & history
Last TLE update: 1 day ago

TLE from 1 day ago
0 FENGYUN 1C DEB
1 31536U 99025BYB 26256.21917571  .00007671  00000-0  95342-3 0  9994
2 31536  98.2202 165.6923 0279553  12.8655 347.9489 14.58901812  2480
Epoch: 2026-09-13T05:15Z
TLE epoch observation values (Epoch: 2026-09-13T05:15:36.781Z)
Latitude
-0.00002°
Longitude
94.57208°
Altitude
506.497 km
Speed
7.714 km/s
True Right ascension
11h 02m 46s
True Declination
0° 00' 00"
Sunlit
Object was in daylight at epoch
Visualization orbit readout
Latitude
Unknown
Longitude
Unknown
Altitude
Unknown
Speed
Unknown
Apparent Right ascension
Unknown
Apparent Declination
Unknown
Sunlit
N/A
Visualization observer readout
Local Sidereal Time
04:01:24
Azimuth
Unknown
Elevation
Unknown
Doppler factor
Unknown
Orbital elements
Apogee altitude
891.501 km
Perigee altitude
496.104 km
Semi-major axis
7,071.939 km
Eccentricity
0.02796
Inclination
98.2202°
RAAN
165.6923°
Arg. of periapsis
12.8655°
True anomaly
347.25646°
Mean anomaly
347.9489°
Eccentric anomaly
347.60509°
Mean motion
3.64952 °/min
Orbital period
98.64 mins
BSTAR
0.00095342
Loading maneuver chart data...
Computing Atmospheric mass density...
Loading historical data...
Loading historical data...
Loading historical data...
Loading historical data...
Loading historical data...
Loading historical data...
Loading historical data...

Documentation

Showing up to 5 results
|